Regional Weather Roundup
Issued by NWS Newport/Morehead, NC

Current Version | Previous Version | Text Only | Print | Product List | Glossary Off
Versions: 1 2 3 4 5 6 7 8 9 10 11 12 13 14 15 16 17 18 19 20 21 22 23 24 25 26 27 28 29 30 31 32 33 34 35 36 37 38 39 40 41 42 43 44 45 46 47 48 49 50

000
ASUS42 KMHX 251712
RWRMHX
WEATHER ROUNDUP FOR EASTERN NORTH CAROLINA
NATIONAL WEATHER SERVICE NEWPORT/MOREHEAD CITY NC
100 PM EDT SAT APR 25 2015

NOTE: "FAIR" INDICATES FEW OR NO CLOUDS BELOW 12,000 FEET
WITH NO SIGNIFICANT WEATHER AND/OR OBSTRUCTIONS TO VISIBILITY

NCZ015>017-031-032-045>047-102-103-251800-
NORTH COAST

CITY           SKY/WX    TMP DP  RH WIND       PRES   REMARKS
EDENTON        CLOUDY    60  47  61 SE8       29.88F
ELIZABETH CITY CLOUDY    58  35  42 E9        29.89F
KITTY HAWK     CLOUDY    56  35  44 E6        29.89F
MANTEO         CLOUDY    58  32  36 E9        29.90F

$$

NCZ045>047-081-094-103-104-251800-
CENTRAL COAST

CITY           SKY/WX    TMP DP  RH WIND       PRES   REMARKS
FRISCO         CLOUDY    60  50  69 CALM      29.89F
SWANQUARTER      N/A     63 N/A N/A SW5       29.85S

$$

NCZ095-097-098-100-101-251800-
SOUTHERN COAST

CITY           SKY/WX    TMP DP  RH WIND       PRES   REMARKS
BEAUFORT       CLOUDY    66  56  70 SW10      29.89F
CEDAR ISLAND     N/A     63 N/A N/A CALM      29.91F
JACKSONVILLE   CLOUDY    57  54  89 SW12G22   29.90F FOG
PINEY ISLAND   CLOUDY   N/A N/A N/A SW6       29.89F
WILMINGTON     LGT RAIN  61  55  81 NW3       29.90F


$$

NCZ011>013-027>030-043-044-078>080-089-090>093-098-251800-
COASTAL PLAIN

CITY           SKY/WX    TMP DP  RH WIND       PRES   REMARKS
AHOSKIE        LGT RAIN  56  41  57 E3        29.87F
CLINTON        LGT RAIN  56  56  98 S5        29.89F
ELIZABETHTOWN  LGT RAIN  58  55  91 CALM      29.88F
GOLDSBORO      LGT RAIN  57  55  94 SW8       29.87F
GREENVILLE     LGT RAIN  59  50  72 SW7       29.91F
HAVELOCK       CLOUDY    66  54  65 W8        29.90F
KENANSVILLE    CLOUDY    55  53  94 SW3       29.91F FOG
KINSTON        RAIN      61  54  77 W6        29.90F
NEW BERN       LGT RAIN  65  53  65 SW7       29.91F
RICHLANDS      CLOUDY    57  52  82 SW6       29.91F
ROCKY MOUNT    LGT RAIN  57  52  83 S6        29.87F
WASHINGTON     CLOUDY    60  48  64 SW6       29.90S
WHITEVILLE     LGT RAIN  60  56  86 SE5       29.87F

$$

AMZ130-135-150-152-154-156-158-170-250-252-270-ANZ085-086-088-633-658-670-251800-
MARINE OBSERVATIONS

STATION/POSITION TIME  TEMP    WIND        PRES    WAVE   SWELL
                       AIR SEA DIR/SP/G            HT/PER HT/PER
                 (UTC) (F)     (DEG/KT/KT) (MB)    (FT/S) (FT/S)
CHESAPEAKE LIGHT 1700   49     100/  9/ 10 1013.3
64 E VA BEACH    1650   54 59   30/  8/ 10 1012.6    2/11   2/11
DUCK             1600   54 55   70/  9/ 10 1012.5
2 E DUCK         1611      55                N/A     2/13   2/13
10 NE DUCK       NOT AVBL
OREGON INLET     1600   58 57   50/  7/ 10 1013.4
HATTERAS CG      1600   62 65  310/ 13/ 15 1013.0
DIAMOND BUOY     1650   63 72  310/ 10/ 12 1012.4    3/ 8   2/ 8
CAPE LOOKOUT     1700   66     250/  8/ 11 1012.0
BEAUFORT LAB     1600   66 64  250/  2/  8 1012.1
27 SE WRIGHTSVLE 1600   65 71  260/ 19/ 23   N/A
5 SE WRIGHTSVLE  1608   64 65  280/ 12/ 14 1013.5
225 S CAPE HAT   1650   66 71  200/ 14/ 17 1015.4    5/ 9   5/ 9
41 SE CHARLESTON 1650   71 72  180/ 14/ 16 1012.9    3/ 9   2/ 9

$$


USA.gov is the U.S. government's official web portal to all federal, state and local government web resources and services.